| time (UTC) | temp F | wind direction | speed MPH | gust MPH | rain 1hr in | rain 24hr in | rain mn in | humidity % | barometer mb |
| 20260831112408 | 77 | 95 | 3.0 | 9.0 | 0.00 | 0.00 | 0.00 | 75 | 1018.4 |
| 20260831111904 | 77 | 119 | 3.0 | 9.0 | 0.00 | 0.00 | 0.00 | 75 | 1018.5 |
| 20260831111404 | 77 | 122 | 4.0 | 8.0 | 0.00 | 0.00 | 0.00 | 75 | 1018.5 |
| 20260831110906 | 77 | 182 | 3.0 | 8.0 | 0.00 | 0.00 | 0.00 | 74 | 1018.4 |
| 20260831110433 | 77 | 219 | 3.0 | 7.0 | 0.00 | 0.00 | 0.00 | 74 | 1018.4 |
| 20260831105900 | 77 | 155 | 3.0 | 7.0 | 0.00 | 0.00 | 0.00 | 74 | 1018.4 |
| 20260831105726 | 78 | 181 | 3.0 | 7.0 | 0.00 | 0.00 | 0.00 | 73 | 1018.5 |
| 20260831105428 | 78 | 242 | 3.0 | 7.0 | 0.00 | 0.00 | 0.00 | 74 | 1018.5 |
| 20260831104358 | 78 | 124 | 3.0 | 8.0 | 0.00 | 0.00 | 0.00 | 73 | 1018.5 |
| 20260831103856 | 78 | 128 | 4.0 | 8.0 | 0.00 | 0.00 | 0.00 | 74 | 1018.5 |
| 20260831103357 | 78 | 149 | 3.0 | 7.0 | 0.00 | 0.00 | 0.00 | 74 | 1018.5 |
| 20260831102857 | 78 | 149 | 3.0 | 7.0 | 0.00 | 0.00 | 0.00 | 74 | 1018.5 |
| 20260831102357 | 77 | 170 | 3.0 | 7.0 | 0.00 | 0.00 | 0.00 | 74 | 1018.4 |
| 20260831101852 | 78 | 169 | 4.0 | 8.0 | 0.00 | 0.00 | 0.00 | 74 | 1018.4 |
| 20260831101354 | 77 | 101 | 4.0 | 8.0 | 0.00 | 0.00 | 0.00 | 74 | 1018.5 |
| 20260831100853 | 77 | 118 | 4.0 | 9.0 | 0.00 | 0.00 | 0.00 | 73 | 1018.5 |
| 20260831100350 | 78 | 87 | 3.0 | 9.0 | 0.00 | 0.00 | 0.00 | 71 | 1018.5 |
| 20260831095852 | 78 | 136 | 3.0 | 8.0 | 0.00 | 0.00 | 0.00 | 71 | 1018.5 |
| 20260831095354 | 79 | 111 | 2.0 | 7.0 | 0.00 | 0.00 | 0.00 | 71 | 1018.4 |
| 20260831094851 | 79 | 172 | 2.0 | 7.0 | 0.00 | 0.00 | 0.00 | 71 | 1018.5 |
| 20260831094632 | 79 | 239 | 3.0 | 7.0 | 0.00 | 0.00 | 0.00 | 70 | 1018.4 |
| 20260831093851 | 78 | 123 | 3.0 | 7.0 | 0.00 | 0.00 | 0.00 | 70 | 1018.5 |
| 20260831093351 | 78 | 139 | 3.0 | 8.0 | 0.00 | 0.00 | 0.00 | 70 | 1018.4 |
| 20260831092854 | 78 | 90 | 2.0 | 8.0 | 0.00 | 0.00 | 0.00 | 69 | 1018.6 |
| 20260831092350 | 78 | 197 | 2.0 | 5.0 | 0.00 | 0.00 | 0.00 | 70 | 1018.5 |
| 20260831091851 | 78 | 159 | 2.0 | 6.0 | 0.00 | 0.00 | 0.00 | 70 | 1018.5 |
| 20260831091353 | 77 | 184 | 2.0 | 6.0 | 0.00 | 0.00 | 0.00 | 70 | 1018.5 |
| 20260831090849 | 77 | 189 | 2.0 | 6.0 | 0.00 | 0.00 | 0.00 | 70 | 1018.5 |
| 20260831090349 | 78 | 130 | 2.0 | 6.0 | 0.00 | 0.00 | 0.00 | 69 | 1018.5 |
| 20260831085847 | 77 | 182 | 2.0 | 5.0 | 0.00 | 0.00 | 0.00 | 68 | 1018.5 |
| 20260831085638 | 77 | 160 | 2.0 | 6.0 | 0.00 | 0.00 | 0.00 | 68 | 1018.5 |
| 20260831084843 | 77 | 110 | 2.0 | 6.0 | 0.00 | 0.00 | 0.00 | 68 | 1018.5 |
| 20260831084636 | 77 | 101 | 2.0 | 4.0 | 0.00 | 0.00 | 0.00 | 69 | 1018.6 |
| 20260831084134 | 77 | 138 | 2.0 | 5.0 | 0.00 | 0.00 | 0.00 | 69 | 1018.6 |
| 20260831083344 | 76 | 163 | 2.0 | 6.0 | 0.00 | 0.00 | 0.00 | 71 | 1018.6 |
| 20260831082843 | 76 | 147 | 2.0 | 6.0 | 0.00 | 0.00 | 0.00 | 71 | 1018.6 |
| 20260831082342 | 76 | 122 | 2.0 | 5.0 | 0.00 | 0.00 | 0.00 | 71 | 1018.6 |
| 20260831081839 | 76 | 124 | 2.0 | 5.0 | 0.00 | 0.00 | 0.00 | 71 | 1018.5 |
| 20260831081336 | 76 | 154 | 2.0 | 5.0 | 0.00 | 0.00 | 0.00 | 70 | 1018.5 |
| 20260831080837 | 76 | 154 | 2.0 | 5.0 | 0.00 | 0.00 | 0.00 | 71 | 1018.5 |
| 20260831080336 | 76 | 141 | 2.0 | 4.0 | 0.00 | 0.00 | 0.00 | 71 | 1018.4 |
| 20260831075834 | 75 | 117 | 2.0 | 4.0 | 0.00 | 0.00 | 0.00 | 72 | 1018.4 |
| 20260831075332 | 75 | 104 | 2.0 | 4.0 | 0.00 | 0.00 | 0.00 | 72 | 1018.3 |
| 20260831074832 | 75 | 97 | 2.0 | 6.0 | 0.00 | 0.00 | 0.00 | 72 | 1018.3 |
| 20260831074333 | 75 | 151 | 2.0 | 6.0 | 0.00 | 0.00 | 0.00 | 72 | 1018.2 |
| 20260831074124 | 75 | 130 | 1.0 | 5.0 | 0.00 | 0.00 | 0.00 | 70 | 1018.1 |
| 20260831073334 | 75 | 130 | 1.0 | 3.0 | 0.00 | 0.00 | 0.00 | 71 | 1018.0 |
| 20260831072829 | 75 | 129 | 1.0 | 3.0 | 0.00 | 0.00 | 0.00 | 72 | 1018.0 |
| 20260831072320 | 75 | 129 | 2.0 | 3.0 | 0.00 | 0.00 | 0.00 | 73 | 1018.0 |
| 20260831071814 | 74 | 128 | 2.0 | 4.0 | 0.00 | 0.00 | 0.00 | 73 | 1018.0 |
| 20260831071306 | 75 | 129 | 1.0 | 4.0 | 0.00 | 0.00 | 0.00 | 72 | 1018.0 |
| 20260831071059 | 75 | 141 | 1.0 | 3.0 | 0.00 | 0.00 | 0.00 | 71 | 1018.0 |
| 20260831070305 | 74 | 139 | 1.0 | 3.0 | 0.00 | 0.00 | 0.00 | 71 | 1018.0 |
| 20260831065804 | 74 | 139 | 1.0 | 3.0 | 0.00 | 0.00 | 0.00 | 71 | 1018.0 |
| 20260831065306 | 74 | 113 | 1.0 | 3.0 | 0.00 | 0.00 | 0.00 | 71 | 1017.9 |
| 20260831064805 | 74 | 112 | 1.0 | 3.0 | 0.00 | 0.00 | 0.00 | 72 | 1017.9 |
| 20260831064306 | 73 | 112 | 1.0 | 3.0 | 0.00 | 0.00 | 0.00 | 71 | 1017.9 |
| 20260831063809 | 73 | 112 | 1.0 | 3.0 | 0.00 | 0.00 | 0.00 | 71 | 1017.9 |
| 20260831063310 | 73 | 112 | 1.0 | 3.0 | 0.00 | 0.00 | 0.00 | 72 | 1017.9 |
| 20260831062805 | 72 | 112 | 1.0 | 3.0 | 0.00 | 0.00 | 0.00 | 72 | 1017.9 |
| 20260831062307 | 72 | 335 | 1.0 | 2.0 | 0.00 | 0.00 | 0.00 | 72 | 1017.9 |
| 20260831061805 | 72 | 334 | 1.0 | 2.0 | 0.00 | 0.00 | 0.00 | 73 | 1017.9 |
| 20260831061606 | 71 | 326 | 1.0 | 2.0 | 0.00 | 0.00 | 0.00 | 74 | 1017.9 |
| 20260831060804 | 72 | 326 | 1.0 | 2.0 | 0.00 | 0.00 | 0.00 | 73 | 1017.9 |
| 20260831060307 | 72 | 314 | 1.0 | 2.0 | 0.00 | 0.00 | 0.00 | 72 | 1017.9 |
| 20260831060107 | 72 | 314 | 0.0 | 2.0 | 0.00 | 0.00 | 0.00 | 73 | 1017.9 |
| 20260831055606 | 72 | 314 | 1.0 | 2.0 | 0.00 | 0.00 | 0.00 | 72 | 1017.9 |
| 20260831055059 | 72 | 314 | 0.0 | 2.0 | 0.00 | 0.00 | 0.00 | 72 | 1017.9 |
| 20260831054303 | 72 | 314 | 0.0 | 2.0 | 0.00 | 0.00 | 0.00 | 71 | 1017.8 |
| 20260831053804 | 72 | 314 | 0.0 | 2.0 | 0.00 | 0.00 | 0.00 | 71 | 1017.8 |
| 20260831053304 | 71 | 314 | 0.0 | 1.0 | 0.00 | 0.00 | 0.00 | 71 | 1017.8 |
| 20260831052805 | 71 | 314 | 0.0 | 1.0 | 0.00 | 0.00 | 0.00 | 70 | 1017.7 |
| 20260831052610 | 70 | 314 | 0.0 | 1.0 | 0.00 | 0.00 | 0.00 | 70 | 1017.7 |
| 20260831051803 | 69 | 314 | 0.0 | 0.0 | 0.00 | 0.00 | 0.00 | 70 | 1017.7 |
| 20260831051545 | 69 | 314 | 0.0 | 2.0 | 0.00 | 0.00 | 0.00 | 71 | 1017.6 |
| 20260831050803 | 69 | 314 | 1.0 | 2.0 | 0.00 | 0.00 | 0.00 | 71 | 1017.6 |
| 20260831050312 | 68 | 314 | 1.0 | 2.0 | 0.00 | 0.00 | 0.00 | 70 | 1017.6 |
| 20260831045806 | 68 | 314 | 1.0 | 2.0 | 0.00 | 0.00 | 0.00 | 70 | 1017.5 |
| 20260831045306 | 68 | 314 | 1.0 | 2.0 | 0.00 | 0.00 | 0.00 | 70 | 1017.5 |
| 20260831044800 | 68 | 314 | 2.0 | 3.0 | 0.00 | 0.00 | 0.00 | 70 | 1017.4 |
| 20260831044546 | 68 | 314 | 2.0 | 3.0 | 0.00 | 0.00 | 0.00 | 70 | 1017.3 |
| 20260831043759 | 68 | 307 | 2.0 | 4.0 | 0.00 | 0.00 | 0.00 | 70 | 1017.3 |
| 20260831043256 | 68 | 307 | 2.0 | 4.0 | 0.00 | 0.00 | 0.00 | 70 | 1017.2 |
| 20260831042754 | 68 | 304 | 1.0 | 2.0 | 0.00 | 0.00 | 0.00 | 70 | 1017.2 |
| 20260831042255 | 68 | 304 | 1.0 | 2.0 | 0.00 | 0.00 | 0.00 | 70 | 1017.3 |
| 20260831042037 | 68 | 304 | 1.0 | 1.0 | 0.00 | 0.00 | 0.00 | 70 | 1017.3 |
| 20260831041252 | 68 | 304 | 1.0 | 2.0 | 0.00 | 0.00 | 0.00 | 70 | 1017.3 |
| 20260831040753 | 68 | 304 | 1.0 | 2.0 | 0.00 | 0.00 | 0.00 | 70 | 1017.3 |
| 20260831040250 | 68 | 304 | 2.0 | 3.0 | 0.00 | 0.00 | 0.00 | 71 | 1017.3 |
| 20260831035754 | 68 | 304 | 2.0 | 3.0 | 0.00 | 0.00 | 0.00 | 71 | 1017.3 |
| 20260831035254 | 69 | 304 | 1.0 | 2.0 | 0.00 | 0.00 | 0.00 | 72 | 1017.3 |
| 20260831034752 | 69 | 304 | 1.0 | 2.0 | 0.00 | 0.00 | 0.00 | 72 | 1017.4 |
| 20260831034249 | 69 | 304 | 1.0 | 2.0 | 0.00 | 0.00 | 0.00 | 72 | 1017.4 |
| 20260831033752 | 69 | 304 | 1.0 | 2.0 | 0.00 | 0.00 | 0.00 | 72 | 1017.4 |
| 20260831033249 | 69 | 304 | 1.0 | 2.0 | 0.00 | 0.00 | 0.00 | 71 | 1017.5 |
| 20260831032749 | 69 | 304 | 1.0 | 2.0 | 0.00 | 0.00 | 0.00 | 71 | 1017.5 |
| 20260831032246 | 69 | 304 | 1.0 | 2.0 | 0.00 | 0.00 | 0.00 | 71 | 1017.6 |
| 20260831031745 | 69 | 304 | 1.0 | 2.0 | 0.00 | 0.00 | 0.00 | 71 | 1017.6 |
| 20260831031245 | 69 | 304 | 1.0 | 3.0 | 0.00 | 0.00 | 0.00 | 71 | 1017.7 |
| 20260831030744 | 69 | 304 | 1.0 | 3.0 | 0.00 | 0.00 | 0.00 | 72 | 1017.6 |
| 20260831030247 | 69 | 304 | 1.0 | 2.0 | 0.00 | 0.00 | 0.00 | 72 | 1017.7 |
| 20260831025744 | 69 | 304 | 1.0 | 2.0 | 0.00 | 0.00 | 0.00 | 72 | 1017.7 |
| 20260831025243 | 69 | 304 | 1.0 | 2.0 | 0.00 | 0.00 | 0.00 | 72 | 1017.6 |
| 20260831024743 | 69 | 304 | 1.0 | 2.0 | 0.00 | 0.00 | 0.00 | 72 | 1017.6 |
| 20260831024242 | 69 | 304 | 1.0 | 2.0 | 0.00 | 0.00 | 0.00 | 72 | 1017.5 |
| 20260831023743 | 69 | 304 | 1.0 | 2.0 | 0.00 | 0.00 | 0.00 | 72 | 1017.5 |
| 20260831023245 | 69 | 304 | 1.0 | 2.0 | 0.00 | 0.00 | 0.00 | 73 | 1017.6 |
| 20260831022743 | 69 | 304 | 1.0 | 3.0 | 0.00 | 0.00 | 0.00 | 73 | 1017.6 |
| 20260831022243 | 69 | 304 | 2.0 | 3.0 | 0.00 | 0.00 | 0.00 | 73 | 1017.6 |
| 20260831021745 | 69 | 304 | 1.0 | 3.0 | 0.00 | 0.00 | 0.00 | 73 | 1017.7 |
| 20260831021624 | 69 | 304 | 2.0 | 2.0 | 0.00 | 0.00 | 0.00 | 73 | 1017.7 |
| 20260831021300 | 69 | 304 | 1.0 | 2.0 | 0.00 | 0.00 | 0.00 | 73 | 1017.7 |
| 20260831020238 | 69 | 304 | 1.0 | 3.0 | 0.00 | 0.00 | 0.00 | 73 | 1017.8 |
| 20260831015738 | 69 | 304 | 1.0 | 3.0 | 0.00 | 0.00 | 0.00 | 73 | 1017.8 |
| 20260831015239 | 69 | 304 | 1.0 | 2.0 | 0.00 | 0.00 | 0.00 | 73 | 1017.8 |
| 20260831014817 | 69 | 304 | 1.0 | 2.0 | 0.00 | 0.00 | 0.00 | 74 | 1017.9 |
| 20260831014758 | 69 | 304 | 1.0 | 2.0 | 0.00 | 0.00 | 0.00 | 74 | 1017.8 |
| 20260831013743 | 69 | 304 | 1.0 | 2.0 | 0.00 | 0.00 | 0.00 | 74 | 1017.9 |
| 20260831013240 | 69 | 304 | 1.0 | 2.0 | 0.00 | 0.00 | 0.00 | 74 | 1017.9 |
| 20260831012737 | 69 | 304 | 1.0 | 2.0 | 0.00 | 0.00 | 0.00 | 74 | 1017.9 |
| 20260831012238 | 69 | 304 | 1.0 | 2.0 | 0.00 | 0.00 | 0.00 | 74 | 1017.9 |
| 20260831011737 | 69 | 304 | 1.0 | 3.0 | 0.00 | 0.00 | 0.00 | 74 | 1017.9 |
| 20260831011235 | 69 | 304 | 1.0 | 3.0 | 0.00 | 0.00 | 0.00 | 74 | 1017.9 |
| 20260831010733 | 69 | 304 | 1.0 | 2.0 | 0.00 | 0.00 | 0.00 | 74 | 1017.8 |
| 20260831010233 | 69 | 304 | 1.0 | 2.0 | 0.00 | 0.00 | 0.00 | 75 | 1017.9 |
| 20260831005739 | 69 | 304 | 1.0 | 2.0 | 0.00 | 0.00 | 0.00 | 75 | 1017.9 |
| 20260831005234 | 70 | 304 | 1.0 | 2.0 | 0.00 | 0.00 | 0.00 | 76 | 1017.9 |
| 20260831004734 | 70 | 304 | 1.0 | 2.0 | 0.00 | 0.00 | 0.00 | 77 | 1017.9 |
| 20260831004235 | 70 | 304 | 1.0 | 2.0 | 0.00 | 0.00 | 0.00 | 77 | 1017.9 |
| 20260831003734 | 70 | 304 | 2.0 | 3.0 | 0.00 | 0.00 | 0.00 | 78 | 1017.9 |
| 20260831003233 | 70 | 304 | 1.0 | 3.0 | 0.00 | 0.00 | 0.00 | 77 | 1018.0 |
| 20260831002733 | 70 | 304 | 1.0 | 2.0 | 0.00 | 0.00 | 0.00 | 77 | 1018.0 |
| 20260831002512 | 70 | 304 | 1.0 | 3.0 | 0.00 | 0.00 | 0.00 | 77 | 1017.9 |
| 20260831001734 | 70 | 304 | 1.0 | 3.0 | 0.00 | 0.00 | 0.00 | 77 | 1017.9 |
| 20260831001233 | 70 | 304 | 1.0 | 2.0 | 0.00 | 0.00 | 0.00 | 77 | 1017.9 |
| 20260831000737 | 70 | 304 | 1.0 | 3.0 | 0.00 | 0.00 | 0.00 | 76 | 1017.9 |
| 20260831000237 | 70 | 304 | 1.0 | 3.0 | 0.00 | 0.00 | 0.00 | 76 | 1017.8 |
| 20260830235733 | 70 | 304 | 2.0 | 3.0 | 0.00 | 0.00 | 0.00 | 75 | 1017.9 |
| 20260830235538 | 70 | 304 | 2.0 | 3.0 | 0.00 | 0.00 | 0.00 | 75 | 1017.9 |
| 20260830235013 | 70 | 304 | 1.0 | 2.0 | 0.00 | 0.00 | 0.00 | 75 | 1017.8 |
| 20260830234234 | 70 | 304 | 1.0 | 2.0 | 0.00 | 0.00 | 0.00 | 75 | 1017.8 |
| 20260830233734 | 70 | 304 | 1.0 | 2.0 | 0.00 | 0.00 | 0.00 | 75 | 1017.8 |
| 20260830233234 | 70 | 304 | 1.0 | 2.0 | 0.00 | 0.00 | 0.00 | 75 | 1017.8 |
| 20260830232734 | 70 | 304 | 1.0 | 2.0 | 0.00 | 0.00 | 0.00 | 75 | 1017.8 |
| 20260830232232 | 70 | 304 | 1.0 | 2.0 | 0.00 | 0.00 | 0.00 | 75 | 1017.8 |
| 20260830231742 | 70 | 304 | 1.0 | 2.0 | 0.00 | 0.00 | 0.00 | 76 | 1017.8 |
| 20260830231232 | 70 | 304 | 1.0 | 2.0 | 0.00 | 0.00 | 0.00 | 76 | 1017.8 |
| 20260830230733 | 70 | 304 | 1.0 | 2.0 | 0.00 | 0.00 | 0.00 | 76 | 1017.9 |
| 20260830230234 | 70 | 304 | 1.0 | 3.0 | 0.00 | 0.00 | 0.00 | 76 | 1018.0 |
| 20260830225811 | 70 | 304 | 2.0 | 2.0 | 0.00 | 0.00 | 0.00 | 76 | 1018.0 |
| 20260830225755 | 70 | 304 | 2.0 | 3.0 | 0.00 | 0.00 | 0.00 | 75 | 1018.0 |
| 20260830224733 | 70 | 304 | 1.0 | 2.0 | 0.00 | 0.00 | 0.00 | 76 | 1018.0 |
| 20260830224232 | 70 | 304 | 1.0 | 2.0 | 0.00 | 0.00 | 0.00 | 75 | 1018.0 |
| 20260830223733 | 70 | 304 | 1.0 | 2.0 | 0.00 | 0.00 | 0.00 | 75 | 1018.0 |
| 20260830223240 | 70 | 304 | 1.0 | 2.0 | 0.00 | 0.00 | 0.00 | 75 | 1017.9 |
| 20260830222735 | 70 | 304 | 1.0 | 2.0 | 0.00 | 0.00 | 0.00 | 75 | 1017.9 |
| 20260830222235 | 70 | 304 | 1.0 | 2.0 | 0.00 | 0.00 | 0.00 | 75 | 1017.9 |
| 20260830221736 | 70 | 304 | 1.0 | 2.0 | 0.00 | 0.00 | 0.00 | 75 | 1017.9 |
| 20260830221234 | 70 | 304 | 1.0 | 2.0 | 0.00 | 0.00 | 0.00 | 75 | 1017.8 |
| 20260830220735 | 70 | 304 | 1.0 | 2.0 | 0.00 | 0.00 | 0.00 | 75 | 1017.8 |
| 20260830220235 | 70 | 304 | 1.0 | 3.0 | 0.00 | 0.00 | 0.00 | 76 | 1017.8 |
| 20260830215735 | 70 | 304 | 1.0 | 3.0 | 0.00 | 0.00 | 0.00 | 76 | 1017.9 |
| 20260830215237 | 70 | 304 | 1.0 | 2.0 | 0.00 | 0.00 | 0.00 | 77 | 1017.8 |
| 20260830214734 | 70 | 304 | 1.0 | 2.0 | 0.00 | 0.00 | 0.00 | 76 | 1017.8 |
| 20260830214241 | 70 | 304 | 1.0 | 2.0 | 0.00 | 0.00 | 0.00 | 77 | 1017.8 |
| 20260830213733 | 70 | 304 | 1.0 | 3.0 | 0.00 | 0.00 | 0.00 | 77 | 1017.8 |
| 20260830213234 | 70 | 304 | 1.0 | 3.0 | 0.00 | 0.00 | 0.00 | 77 | 1017.8 |
| 20260830212733 | 70 | 304 | 1.0 | 3.0 | 0.00 | 0.00 | 0.00 | 77 | 1017.8 |
| 20260830212237 | 71 | 304 | 1.0 | 2.0 | 0.00 | 0.00 | 0.00 | 78 | 1017.8 |
| 20260830211740 | 71 | 304 | 1.0 | 2.0 | 0.00 | 0.00 | 0.00 | 78 | 1017.8 |
| 20260830211235 | 71 | 304 | 1.0 | 2.0 | 0.00 | 0.00 | 0.00 | 78 | 1017.7 |
| 20260830210732 | 71 | 304 | 1.0 | 2.0 | 0.00 | 0.00 | 0.00 | 79 | 1017.7 |
| 20260830210232 | 71 | 304 | 2.0 | 3.0 | 0.00 | 0.00 | 0.00 | 79 | 1017.7 |
| 20260830210024 | 71 | 304 | 2.0 | 3.0 | 0.00 | 0.00 | 0.00 | 79 | 1017.7 |
| 20260830205229 | 71 | 304 | 2.0 | 3.0 | 0.00 | 0.00 | 0.00 | 78 | 1017.6 |
| 20260830204725 | 71 | 304 | 2.0 | 3.0 | 0.00 | 0.00 | 0.00 | 78 | 1017.6 |
| 20260830204225 | 71 | 304 | 2.0 | 3.0 | 0.00 | 0.00 | 0.00 | 78 | 1017.7 |
| 20260830203727 | 71 | 304 | 2.0 | 3.0 | 0.00 | 0.00 | 0.00 | 77 | 1017.7 |
| 20260830203235 | 71 | 304 | 1.0 | 2.0 | 0.00 | 0.00 | 0.00 | 77 | 1017.7 |
| 20260830203016 | 71 | 304 | 1.0 | 2.0 | 0.00 | 0.00 | 0.00 | 77 | 1017.7 |
| 20260830202223 | 72 | 304 | 1.0 | 2.0 | 0.00 | 0.00 | 0.00 | 76 | 1017.7 |
| 20260830201738 | 72 | 304 | 1.0 | 2.0 | 0.00 | 0.00 | 0.00 | 75 | 1017.6 |
| 20260830201224 | 72 | 304 | 1.0 | 2.0 | 0.00 | 0.00 | 0.00 | 75 | 1017.6 |
| 20260830200724 | 72 | 304 | 1.0 | 2.0 | 0.00 | 0.00 | 0.00 | 75 | 1017.5 |
| 20260830200224 | 72 | 304 | 1.0 | 2.0 | 0.00 | 0.00 | 0.00 | 74 | 1017.5 |
| 20260830195724 | 72 | 304 | 1.0 | 2.0 | 0.00 | 0.00 | 0.00 | 74 | 1017.5 |
| 20260830195224 | 72 | 304 | 1.0 | 2.0 | 0.00 | 0.00 | 0.00 | 75 | 1017.5 |
| 20260830194723 | 72 | 304 | 1.0 | 2.0 | 0.00 | 0.00 | 0.00 | 75 | 1017.4 |
| 20260830194514 | 72 | 304 | 1.0 | 2.0 | 0.00 | 0.00 | 0.00 | 75 | 1017.4 |
| 20260830193717 | 72 | 304 | 2.0 | 2.0 | 0.00 | 0.00 | 0.00 | 75 | 1017.4 |
| 20260830193501 | 72 | 304 | 1.0 | 2.0 | 0.00 | 0.00 | 0.00 | 75 | 1017.3 |
| 20260830192715 | 72 | 304 | 1.0 | 2.0 | 0.00 | 0.00 | 0.00 | 75 | 1017.4 |
| 20260830192217 | 72 | 304 | 2.0 | 2.0 | 0.00 | 0.00 | 0.00 | 74 | 1017.2 |
| 20260830191717 | 72 | 304 | 1.0 | 2.0 | 0.00 | 0.00 | 0.00 | 73 | 1017.2 |
| 20260830191211 | 72 | 304 | 1.0 | 2.0 | 0.00 | 0.00 | 0.00 | 73 | 1017.2 |
| 20260830190711 | 72 | 304 | 1.0 | 2.0 | 0.00 | 0.00 | 0.00 | 73 | 1017.2 |
| 20260830190210 | 72 | 304 | 1.0 | 2.0 | 0.00 | 0.00 | 0.00 | 74 | 1017.2 |
| 20260830185710 | 72 | 304 | 1.0 | 2.0 | 0.00 | 0.00 | 0.00 | 75 | 1017.2 |
| 20260830185248 | 72 | 304 | 1.0 | 2.0 | 0.00 | 0.00 | 0.00 | 73 | 1017.1 |
| 20260830185225 | 72 | 304 | 1.0 | 2.0 | 0.00 | 0.00 | 0.00 | 74 | 1017.1 |
| 20260830184206 | 72 | 304 | 1.0 | 2.0 | 0.00 | 0.00 | 0.00 | 74 | 1017.0 |
| 20260830183706 | 72 | 304 | 1.0 | 2.0 | 0.00 | 0.00 | 0.00 | 73 | 1017.0 |
| 20260830183206 | 73 | 304 | 1.0 | 2.0 | 0.00 | 0.00 | 0.00 | 75 | 1017.0 |
| 20260830182711 | 73 | 304 | 1.0 | 2.0 | 0.00 | 0.00 | 0.00 | 76 | 1016.9 |
| 20260830182205 | 73 | 304 | 1.0 | 2.0 | 0.00 | 0.00 | 0.00 | 76 | 1016.9 |
| 20260830181706 | 73 | 304 | 1.0 | 2.0 | 0.00 | 0.00 | 0.00 | 75 | 1016.7 |
| 20260830181206 | 73 | 304 | 1.0 | 2.0 | 0.00 | 0.00 | 0.00 | 76 | 1016.9 |
| 20260830180704 | 73 | 304 | 1.0 | 2.0 | 0.00 | 0.00 | 0.00 | 76 | 1016.9 |
| 20260830180207 | 73 | 304 | 1.0 | 2.0 | 0.00 | 0.00 | 0.00 | 76 | 1016.7 |
| 20260830175704 | 73 | 304 | 1.0 | 2.0 | 0.00 | 0.00 | 0.00 | 76 | 1016.7 |
| 20260830175205 | 73 | 304 | 1.0 | 2.0 | 0.00 | 0.00 | 0.00 | 76 | 1016.7 |
| 20260830174706 | 74 | 304 | 1.0 | 2.0 | 0.00 | 0.00 | 0.00 | 75 | 1016.7 |
| 20260830174449 | 74 | 304 | 1.0 | 2.0 | 0.00 | 0.00 | 0.00 | 75 | 1016.7 |
| 20260830173704 | 74 | 304 | 1.0 | 2.0 | 0.00 | 0.00 | 0.00 | 76 | 1016.7 |
| 20260830173205 | 74 | 304 | 1.0 | 3.0 | 0.00 | 0.00 | 0.00 | 77 | 1016.6 |
| 20260830172943 | 74 | 304 | 1.0 | 3.0 | 0.00 | 0.00 | 0.00 | 77 | 1016.6 |
| 20260830172205 | 74 | 287 | 1.0 | 2.0 | 0.00 | 0.00 | 0.00 | 77 | 1016.6 |
| 20260830171943 | 74 | 286 | 2.0 | 3.0 | 0.00 | 0.00 | 0.00 | 78 | 1016.5 |
| 20260830171205 | 74 | 286 | 2.0 | 4.0 | 0.00 | 0.00 | 0.00 | 78 | 1016.5 |
| 20260830170704 | 74 | 286 | 2.0 | 4.0 | 0.00 | 0.00 | 0.00 | 77 | 1016.5 |
| 20260830170206 | 74 | 281 | 2.0 | 4.0 | 0.00 | 0.00 | 0.00 | 77 | 1016.6 |
| 20260830165947 | 74 | 311 | 1.0 | 0.0 | 0.00 | 0.00 | 0.00 | 77 | 1016.6 |
| 20260830165206 | 0 | 0.0 | 0.0 | 0.00 | 0.00 | 0.00 | |||
| 20260830164706 | 0 | 0.0 | 0.0 | 0.00 | 0.00 | 0.00 | |||
| 20260830164211 | 0 | 0.0 | 0.0 | 0.00 | 0.00 | 0.00 | |||
| 20260830163932 | 0 | 0.0 | 0.0 | 0.00 | 0.00 | 0.00 | |||
| 20260830163208 | 0 | 0.0 | 0.0 | 0.00 | 0.00 | 0.00 | |||
| 20260830162706 | 0 | 0.0 | 0.0 | 0.00 | 0.00 | 0.00 | |||
| 20260830162442 | 0 | 0.0 | 0.0 | 0.00 | 0.00 | 0.00 | |||
| 20260830161706 | 0 | 0.0 | 0.0 | 0.00 | 0.00 | 0.00 | |||
| 20260830161206 | 0 | 0.0 | 0.0 | 0.00 | 0.00 | 0.00 | |||
| 20260830160408 | 0 | 0.0 | 0.0 | 0.00 | 0.00 | 0.00 | |||
| 20260830160136 | 0 | 0.0 | 0.0 | 0.00 | 0.00 | 0.00 | |||
| 20260830155407 | 0 | 0.0 | 0.0 | 0.00 | 0.00 | 0.00 | |||
| 20260830154909 | 0 | 0.0 | 0.0 | 0.00 | 0.00 | 0.00 | |||
| 20260830154407 | 0 | 0.0 | 0.0 | 0.00 | 0.00 | 0.00 | |||
| 20260830153905 | 0 | 0.0 | 0.0 | 0.00 | 0.00 | 0.00 | |||
| 20260830153406 | 0 | 0.0 | 0.0 | 0.00 | 0.00 | 0.00 | |||
| 20260830152904 | 0 | 0.0 | 0.0 | 0.00 | 0.00 | 0.00 | |||
| 20260830152407 | 0 | 0.0 | 0.0 | 0.00 | 0.00 | 0.00 | |||
| 20260830151909 | 0 | 0.0 | 0.0 | 0.00 | 0.00 | 0.00 | |||
| 20260830151404 | 0 | 0.0 | 0.0 | 0.00 | 0.00 | 0.00 | |||
| 20260830150906 | 0 | 0.0 | 0.0 | 0.00 | 0.00 | 0.00 | |||
| 20260830150408 | 0 | 0.0 | 0.0 | 0.00 | 0.00 | 0.00 | |||
| 20260830145907 | 0 | 0.0 | 0.0 | 0.00 | 0.00 | 0.00 | |||
| 20260830145408 | 0 | 0.0 | 0.0 | 0.00 | 0.00 | 0.00 | |||
| 20260830144906 | 0 | 0.0 | 0.0 | 0.00 | 0.00 | 0.00 | |||
| 20260830144636 | 0 | 0.0 | 0.0 | 0.00 | 0.00 | 0.00 | |||
| 20260830143906 | 0 | 0.0 | 0.0 | 0.00 | 0.00 | 0.00 | |||
| 20260830143408 | 0 | 0.0 | 0.0 | 0.00 | 0.00 | 0.00 | |||
| 20260830143136 | 0 | 0.0 | 0.0 | 0.00 | 0.00 | 0.00 | |||
| 20260830142409 | 0 | 0.0 | 0.0 | 0.00 | 0.00 | 0.00 | |||
| 20260830141906 | 0 | 0.0 | 0.0 | 0.00 | 0.00 | 0.00 | |||
| 20260830141406 | 0 | 0.0 | 0.0 | 0.00 | 0.00 | 0.00 | |||
| 20260830140516 | 78 | 106 | 2.0 | 4.0 | 0.00 | 0.00 | 0.00 | 71 | 1017.1 |
| 20260830140005 | 79 | 179 | 2.0 | 4.0 | 0.00 | 0.00 | 0.00 | 71 | 1017.2 |
| 20260830135507 | 78 | 105 | 2.0 | 5.0 | 0.00 | 0.00 | 0.00 | 71 | 1017.2 |
| 20260830135005 | 78 | 58 | 2.0 | 5.0 | 0.00 | 0.00 | 0.00 | 71 | 1017.3 |
| 20260830134506 | 78 | 208 | 2.0 | 7.0 | 0.00 | 0.00 | 0.00 | 71 | 1017.3 |
| 20260830134252 | 78 | 67 | 2.0 | 7.0 | 0.00 | 0.00 | 0.00 | 71 | 1017.4 |
| 20260830133505 | 78 | 208 | 2.0 | 5.0 | 0.00 | 0.00 | 0.00 | 72 | 1017.4 |
| 20260830133006 | 78 | 158 | 2.0 | 8.0 | 0.00 | 0.00 | 0.00 | 72 | 1017.4 |
| 20260830132506 | 78 | 179 | 2.0 | 8.0 | 0.00 | 0.00 | 0.00 | 72 | 1017.5 |
| 20260830132008 | 78 | 166 | 2.0 | 7.0 | 0.00 | 0.00 | 0.00 | 72 | 1017.5 |
| 20260830131748 | 78 | 161 | 3.0 | 9.0 | 0.00 | 0.00 | 0.00 | 73 | 1017.6 |
| 20260830131005 | 78 | 89 | 4.0 | 10.0 | 0.00 | 0.00 | 0.00 | 73 | 1017.6 |
| 20260830130509 | 78 | 127 | 3.0 | 10.0 | 0.00 | 0.00 | 0.00 | 72 | 1017.6 |
| 20260830130007 | 78 | 243 | 3.0 | 8.0 | 0.00 | 0.00 | 0.00 | 72 | 1017.6 |
| 20260830125507 | 78 | 117 | 3.0 | 10.0 | 0.00 | 0.00 | 0.00 | 72 | 1017.7 |
| 20260830125004 | 78 | 96 | 3.0 | 10.0 | 0.00 | 0.00 | 0.00 | 71 | 1017.7 |
| 20260830124506 | 78 | 92 | 3.0 | 8.0 | 0.00 | 0.00 | 0.00 | 71 | 1017.7 |
| 20260830124005 | 78 | 182 | 3.0 | 8.0 | 0.00 | 0.00 | 0.00 | 71 | 1017.7 |
| 20260830123504 | 78 | 106 | 3.0 | 8.0 | 0.00 | 0.00 | 0.00 | 71 | 1017.7 |
| 20260830123006 | 78 | 153 | 3.0 | 7.0 | 0.00 | 0.00 | 0.00 | 70 | 1017.7 |
| 20260830122505 | 78 | 222 | 3.0 | 9.0 | 0.00 | 0.00 | 0.00 | 70 | 1017.8 |
| 20260830122005 | 78 | 120 | 3.0 | 9.0 | 0.00 | 0.00 | 0.00 | 70 | 1017.8 |
| 20260830121826 | 78 | 162 | 3.0 | 6.0 | 0.00 | 0.00 | 0.00 | 71 | 1017.8 |
| 20260830121528 | 78 | 191 | 3.0 | 8.0 | 0.00 | 0.00 | 0.00 | 71 | 1017.8 |
| 20260830120504 | 78 | 183 | 3.0 | 7.0 | 0.00 | 0.00 | 0.00 | 71 | 1017.8 |
| 20260830120017 | 78 | 73 | 3.0 | 7.0 | 0.00 | 0.00 | 0.00 | 70 | 1017.8 |
| 20260830115741 | 78 | 122 | 3.0 | 7.0 | 0.00 | 0.00 | 0.00 | 71 | 1017.8 |
| 20260830115307 | 78 | 139 | 3.0 | 7.0 | 0.00 | 0.00 | 0.00 | 71 | 1017.8 |
| 20260830114504 | 78 | 124 | 3.0 | 7.0 | 0.00 | 0.00 | 0.00 | 70 | 1017.8 |
| 20260830114004 | 78 | 129 | 3.0 | 8.0 | 0.00 | 0.00 | 0.00 | 71 | 1017.8 |
| 20260830113505 | 78 | 149 | 3.0 | 8.0 | 0.00 | 0.00 | 0.00 | 70 | 1017.8 |
| 20260830113006 | 78 | 200 | 3.0 | 7.0 | 0.00 | 0.00 | 0.00 | 70 | 1017.8 |
| 20260830112745 | 78 | 146 | 3.0 | 8.0 | 0.00 | 0.00 | 0.00 | 70 | 1017.9 |